Weather History for Doha, Qatar

Change the Weather History Date:

Thursday, March 7, 2013

  Actual Average Record
Temperature  
Mean Temperature 72 °F -  
Max Temperature 79 °F 82 °F 87 °F (2004)
Min Temperature 64 °F 64 °F 57 °F (2012)
Cooling Degree Days 6    
Growing Degree Days 22 (Base 50)    
Moisture  
Dew Point 51 °F    
Average Humidity 48    
Maximum Humidity 78    
Minimum Humidity 27    
Precipitation  
Precipitation 0.00 in 0.02 in - ()
Sea Level Pressure  
Sea Level Pressure 30.01 in    
Wind  
Wind Speed 18 mph ()    
Max Wind Speed 29 mph    
Max Gust Speed 33 mph    
Visibility 4.3 miles    
Events      
Averages and records for this station are not official NWS values.
T = Trace of Precipitation, MM = Missing Value Source: Averaged Metar Reports

Daily Weather History Graph

Daily Weather History Graph

Search for Another Location

Airport:

Trip Planner

Search our weather history database for the weather conditions in past years. The results will help you decide how hot, cold, wet, or windy it might be!

Date:

Astronomy

Mar. 07, 2013 Rise Set
Actual Time 5:51 AM AST 5:38 PM AST
Civil Twilight 5:28 AM AST 6:01 PM AST
Nautical Twilight 5:01 AM AST 6:28 PM AST
Astronomical Twilight 4:35 AM AST 6:54 PM AST
Moon 2:08 AM AST (3/7) 1:22 PM AST (3/7)
Length of Visible Light 12h 33m
Length of Day
11h 47m
Waning Crescent, 23% of the Moon is Illuminated
Mar 7
Waning Crescent
Mar 11
New
Mar 19
First Quarter
Mar 27
Full
Apr 3
Last Quarter

Hourly Weather History & Observations

Time (AST) Temp. Dew Point Humidity Pressure Visibility Wind Dir Wind Speed Gust Speed Precip Events Conditions
12:00 AM 75.2 °F 62.6 °F 65% 29.86 in 5.0 mi NW 10.4 mph - N/A   Unknown
1:00 AM 71.6 °F 64.4 °F 78% 29.86 in 5.0 mi NW 13.8 mph - N/A   Unknown
2:00 AM 71.6 °F 62.6 °F 73% 29.89 in 5.0 mi NNW 17.3 mph - N/A   Unknown
3:00 AM 69.8 °F 59.0 °F 68% 29.89 in 5.0 mi NNW 17.3 mph - N/A   Unknown
3:30 AM 69.8 °F 60.8 °F 73% 29.89 in 5.6 mi NNW 18.4 mph - N/A   Unknown
4:00 AM 69.8 °F 59.0 °F 68% 29.89 in 5.6 mi NNW 18.4 mph - N/A   Unknown
4:30 AM 69.8 °F 57.2 °F 64% 29.92 in 5.6 mi NNW 20.7 mph - N/A   Unknown
5:00 AM 69.8 °F 55.4 °F 60% 29.92 in - NE 21.9 mph - N/A   Clear
5:30 AM 69.8 °F 53.6 °F 56% 29.95 in - NNW 18.4 mph - N/A   Clear
6:00 AM 69.8 °F 51.8 °F 53% 29.95 in - NNW 20.7 mph 33.4 mph N/A   Clear
6:30 AM 69.8 °F 51.8 °F 53% 29.98 in - NNW 23.0 mph - N/A   Clear
7:00 AM 71.6 °F 53.6 °F 53% 29.98 in - NNW 20.7 mph - N/A   Clear
7:30 AM 71.6 °F 51.8 °F 50% 30.01 in - NNW 21.9 mph - N/A   Clear
8:00 AM 73.4 °F 51.8 °F 47% 30.01 in - NNW 24.2 mph - N/A   Clear
8:30 AM 73.4 °F 51.8 °F 47% 30.04 in 4.3 mi NNW 23.0 mph - N/A   Unknown
9:00 AM 74 °F 53 °F 36% 30.05 in 3 mi NNW 24.2 mph - -   Blowing Sand
9:00 AM 75.2 °F 51.8 °F 44% 30.04 in 3.1 mi NNW 24.2 mph - N/A   Widespread Dust
9:30 AM 75.2 °F 53.6 °F 47% 30.04 in 3.1 mi NNW 25.3 mph - N/A   Widespread Dust
10:00 AM 77.0 °F 53.6 °F 44% 30.04 in 3.7 mi North 20.7 mph - N/A   Unknown
10:30 AM 78.8 °F 55.4 °F 44% 30.04 in 3.7 mi North 24.2 mph - N/A   Unknown
11:00 AM 77.0 °F 53.6 °F 44% 30.04 in 3.1 mi North 28.8 mph - N/A   Widespread Dust
12:00 PM 77.0 °F 50.0 °F 39% 30.04 in 3.1 mi NNW 26.5 mph - N/A   Widespread Dust
12:30 PM 80.6 °F 51.8 °F 37% 30.04 in 2.8 mi North 24.2 mph - N/A   Widespread Dust
1:00 PM 78.8 °F 51.8 °F 39% 30.01 in 2.8 mi NNW 24.2 mph - N/A   Widespread Dust
1:30 PM 77.0 °F 50.0 °F 39% 30.01 in 3.1 mi North 24.2 mph - N/A   Widespread Dust
2:00 PM 77.0 °F 50.0 °F 39% 30.01 in 3.1 mi North 25.3 mph - N/A   Widespread Dust
2:30 PM 77.0 °F 50.0 °F 39% 30.01 in 3.1 mi North 24.2 mph - N/A   Widespread Dust
3:00 PM 76 °F 49 °F 27% 30.02 in 4 mi North 23.0 mph - -   Blowing Sand
3:00 PM 75.2 °F 48.2 °F 38% 30.01 in 3.7 mi North 23.0 mph - N/A   Unknown
3:30 PM 75.2 °F 48.2 °F 38% 30.01 in 4.3 mi North 23.0 mph - N/A   Unknown
4:00 PM 73.4 °F 48.2 °F 41% 30.01 in 4.3 mi North 21.9 mph - N/A   Unknown
4:30 PM 73.4 °F 46.4 °F 38% 30.04 in 4.3 mi NNW 19.6 mph - N/A   Unknown
5:00 PM 71.6 °F 46.4 °F 41% 30.04 in 5.0 mi NNW 19.6 mph - N/A   Unknown
5:30 PM 69.8 °F 44.6 °F 40% 30.04 in 5.0 mi NNW 16.1 mph - N/A   Unknown
6:00 PM 69.8 °F 44.6 °F 40% 30.06 in 5.0 mi NNW 18.4 mph - N/A   Unknown
6:30 PM 68.0 °F 46.4 °F 46% 30.06 in 5.6 mi NNW 17.3 mph - N/A   Unknown
7:00 PM 68.0 °F 46.4 °F 46% 30.06 in 5.6 mi NNW 19.6 mph 31.1 mph N/A   Unknown
7:30 PM 66.2 °F 48.2 °F 52% 30.09 in 5.6 mi NNW 17.3 mph - N/A   Unknown
8:00 PM 66.2 °F 48.2 °F 52% 30.09 in 5.6 mi NNW 17.3 mph - N/A   Unknown
8:30 PM 66.2 °F 46.4 °F 49% 30.09 in 5.6 mi NNW 13.8 mph - N/A   Unknown
9:00 PM 65 °F 46 °F 40% 30.11 in 5 mi NW 13.8 mph - -   Widespread Dust
9:00 PM 66.2 °F 46.4 °F 49% 30.09 in 5.0 mi NW 13.8 mph - N/A   Unknown
9:30 PM 64.4 °F 46.4 °F 52% 30.09 in 5.0 mi NW 17.3 mph - N/A   Unknown
10:00 PM 78.8 °F 57.2 °F 47% 29.86 in 3.7 mi SW 5.8 mph - N/A   Unknown
10:30 PM 64.4 °F 42.8 °F 45% 30.09 in 4.3 mi NNW 15.0 mph - N/A   Unknown
11:00 PM 64.4 °F 42.8 °F 45% 30.09 in 4.3 mi NNW 15.0 mph - N/A   Unknown
11:30 PM 64.4 °F 41.0 °F 42% 30.09 in 3.7 mi NW 16.1 mph 28.8 mph N/A   Unknown